Location: *
(51.4660°N, 0.3360°W)
Time: 18:38:16
(UTC+00:00)

SJ 16-02 - Visible Passes

Search period start: 15 December 2019 00:00
Search period end: 25 December 2019 00:00
Orbit: 606 x 616 km, 75.0° (Epoch: 15 December)

Date Brightness Start Highest point End Pass type
(mag) Time Alt. Az. Time Alt. Az. Time Alt. Az.
18 Dec 3.9 06:35:42 10° NNE 06:37:58 14° NE 06:40:14 10° ENE visible
19 Dec 3.5 06:50:03 10° N 06:53:21 20° NE 06:56:39 10° E visible
20 Dec 3.0 07:04:42 10° N 07:08:38 30° NE 07:12:34 10° ESE visible
21 Dec 4.2 05:43:27 10° NNE 05:44:05 10° NE 05:44:43 10° NE visible
21 Dec 2.2 07:19:30 10° NNW 07:23:49 49° ENE 07:28:06 10° SE visible
22 Dec 3.9 05:56:57 10° N 05:59:33 15° NE 06:02:09 10° E visible
23 Dec 3.5 06:11:25 10° N 06:14:55 22° NE 06:18:25 10° ESE visible
24 Dec 2.8 06:26:06 10° N 06:30:10 34° ENE 06:34:13 10° ESE visible
